Location: Key Biscayne
(25.6930°N, 80.1630°W)
Time: 12:47:38
(UTC-05:00)

Tiangong 1 - Pass Details

Date: 19 November 2017
Orbit: 285 x 309 km, 42.8° (Epoch: 19 November)

Event Time Altitude Azimuth Distance (km) Brightness Sun altitude
Rises 18:38:32 0° 198° (SSW) 1,969 5.1 -15.4°
Reaches altitude 10° 18:41:11 10° 167° (SSE) 1,145 3.5 -16.0°
Enters shadow 18:41:39 12° 157° (SSE) 1,062 3.2 -16.1°
